This is the latest recevied weather packets stored in our database for station/object JS2WAD-13. If no packets are shown the sender has not sent any weather packets the latest 10 day(s).
| Time | Temp. | Humidity | Pressure | Rain* | Wind** | Luminosity | Snow |
|---|---|---|---|---|---|---|---|
| 1777670495 | 15° C | 73% | 900.1 hPa | 0 mm | - | 18 W/m² | - |
| 1777670195 | 15° C | 73% | 900 hPa | 0 mm | - | 16 W/m² | - |
| 1777669895 | 15° C | 72% | 900.1 hPa | 0 mm | - | 16 W/m² | - |
| 1777669595 | 15° C | 74% | 900 hPa | 0 mm | - | 16 W/m² | - |
| 1777669295 | 15° C | 72% | 900 hPa | 0 mm | - | 14 W/m² | - |
| 1777668995 | 15° C | 73% | 899.9 hPa | 0 mm | - | 14 W/m² | - |
| 1777668695 | 15° C | 72% | 899.8 hPa | 0 mm | - | 12 W/m² | - |
| 1777668395 | 15° C | 71% | 899.7 hPa | 0 mm | - | 12 W/m² | - |
| 1777668095 | 15° C | 72% | 899.5 hPa | 0 mm | - | 11 W/m² | - |
| 1777667795 | 15° C | 72% | 899.5 hPa | 0 mm | - | 11 W/m² | - |
| 1777667495 | 15° C | 71% | 899.3 hPa | 0 mm | - | 9 W/m² | - |
| 1777667195 | 15° C | 72% | 899.3 hPa | 0 mm | - | 7 W/m² | - |
| 1777666895 | 15° C | 74% | 899 hPa | 0 mm | - | 7 W/m² | - |
| 1777666595 | 15° C | 72% | 898.8 hPa | 0 mm | - | 5 W/m² | - |
| 1777666295 | 15° C | 72% | 898.7 hPa | 0 mm | - | 0 W/m² | - |
| 1777665995 | 15° C | 72% | 898.6 hPa | 0 mm | - | 0 W/m² | - |
| 1777665695 | 15° C | 72% | 898.5 hPa | 0 mm | - | 0 W/m² | - |
| 1777665395 | 15° C | 72% | 898.4 hPa | 0 mm | - | 0 W/m² | - |
| 1777665095 | 15° C | 73% | 898.3 hPa | 0 mm | - | 0 W/m² | - |
| 1777664795 | 14.44° C | 77% | 898.3 hPa | 0 mm | - | 0 W/m² | - |
| 1777664495 | 14.44° C | 75% | 898.2 hPa | 0 mm | - | 0 W/m² | - |
| 1777664195 | 14.44° C | 76% | 898.1 hPa | 0 mm | - | 0 W/m² | - |
| 1777663895 | 14.44° C | 76% | 898 hPa | 0 mm | - | 0 W/m² | - |
| 1777663595 | 14.44° C | 77% | 897.9 hPa | 0 mm | - | 0 W/m² | - |
| 1777663295 | 14.44° C | 76% | 897.9 hPa | 0 mm | - | 0 W/m² | - |
* Rain latest hour (hover to see other rain measurements)
** Current wind speed in m/s (hover to see current wind gust speed)